This is the latest recevied weather packets stored in our database for station/object KQ4UPF. If no packets are shown the sender has not sent any weather packets the latest 10 day(s).
| Time | Temp. | Humidity | Pressure | Rain* | Wind** | Luminosity | Snow |
|---|---|---|---|---|---|---|---|
| 1778070598 | 20.56° C | 81% | 1013.9 hPa | 0 mm | - | 10 W/m² | - |
| 1778070295 | 20.56° C | 81% | 1013.4 hPa | 0 mm | - | 15 W/m² | - |
| 1778069993 | 20.56° C | 81% | 1013.3 hPa | 0 mm | - | 14 W/m² | - |
| 1778069690 | 20.56° C | 80% | 1013.2 hPa | 0 mm | - | 9 W/m² | - |
| 1778069386 | 20.56° C | 80% | 1013.6 hPa | 0 mm | - | 8 W/m² | - |
| 1778069084 | 20.56° C | 80% | 1013.4 hPa | 0 mm | - | 9 W/m² | - |
| 1778068781 | 20.56° C | 79% | 1013.2 hPa | 0 mm | - | 8 W/m² | - |
| 1778068479 | 20.56° C | 80% | 1013.1 hPa | 0 mm | - | 7 W/m² | - |
| 1778068177 | 20.56° C | 80% | 1012.9 hPa | 0 mm | - | 8 W/m² | - |
| 1778067874 | 20.56° C | 80% | 1012.9 hPa | 0 mm | - | 10 W/m² | - |
| 1778067573 | 20.56° C | 81% | 1012.8 hPa | 0 mm | - | 7 W/m² | - |
| 1778067271 | 20.56° C | 79% | 1012.5 hPa | 0 mm | - | 5 W/m² | - |
| 1778066967 | 20.56° C | 80% | 1012.5 hPa | 0 mm | - | 4 W/m² | - |
| 1778066665 | 20.56° C | 80% | 1012.2 hPa | 0 mm | - | 6 W/m² | - |
| 1778066362 | 20.56° C | 80% | 1012.3 hPa | 0 mm | - | 4 W/m² | - |
| 1778066060 | 20.56° C | 79% | 1012.2 hPa | 0 mm | - | 3 W/m² | - |
| 1778065756 | 20.56° C | 79% | 1012.3 hPa | 0 mm | - | 4 W/m² | - |
| 1778065454 | 20° C | 80% | 1012.1 hPa | 0 mm | - | 2 W/m² | - |
| 1778065150 | 20.56° C | 79% | 1012.1 hPa | 0 mm | - | 1 W/m² | - |
| 1778064847 | 20.56° C | 79% | 1012.1 hPa | 0 mm | - | 1 W/m² | - |
| 1778064544 | 20.56° C | 78% | 1012.1 hPa | 0 mm | - | 0 W/m² | - |
| 1778064242 | 20.56° C | 77% | 1012.4 hPa | 0 mm | - | 0 W/m² | - |
| 1778063940 | 20.56° C | 77% | 1012.1 hPa | 0 mm | - | 0 W/m² | - |
| 1778063637 | 20.56° C | 77% | 1012 hPa | 0 mm | - | 0 W/m² | - |
| 1778063334 | 20.56° C | 77% | 1012.2 hPa | 0 mm | - | 0 W/m² | - |
* Rain latest hour (hover to see other rain measurements)
** Current wind speed in m/s (hover to see current wind gust speed)